When you browse on this site, cookies collect data to enhance your experience and personalize the content and advertising you see.
Visit our Privacy Policy to learn more. By continuing to use the site, you agree to this use of cookies and data.
  • In Hungary
  • List of Countries
  • For 7 days
  • Water Temperature
  • Satellite Maps
  • Weather Map
  • News
  • Weather Widgets
  • user-avatar
    Login

    Hourly Weather Vilar de Andorinho

    Today, 18 January, Friday

    Time Temperature Precipitation Wind Pressure Humidity
    00:00 +7°C° 0 mm 1 mps 760 mmHg 77%
    01:00 +7°C° 0 mm 1 mps 760 mmHg 77%
    02:00 +7°C° 0 mm 1 mps 759 mmHg 77%
    03:00 +7°C° 0 mm 1 mps 759 mmHg 77%
    04:00 +6°C° 0 mm 1 mps 759 mmHg 77%
    05:00 +6°C° 0 mm 1 mps 759 mmHg 76%
    06:00 +7°C° 0 mm 1 mps 759 mmHg 75%
    07:00 +7°C° 0 mm 1 mps 759 mmHg 74%
    08:00 +8°C° 0 mm 1 mps 759 mmHg 73%
    09:00 +8°C° 0.4 mm 1 mps 759 mmHg 74%
    10:00 +9°C° 0.4 mm 1 mps 759 mmHg 75%
    11:00 +9°C° 0 mm 2 mps 759 mmHg 75%
    12:00 +9°C° 0.3 mm 2 mps 758 mmHg 77%
    13:00 +9°C° 0.3 mm 2 mps 758 mmHg 80%
    14:00 +9°C° 0.3 mm 2 mps 757 mmHg 82%
    15:00 +8°C° 0 mm 2 mps 757 mmHg 83%
    16:00 +8°C° 0 mm 2 mps 757 mmHg 84%
    17:00 +8°C° 0 mm 2 mps 757 mmHg 85%
    18:00 +8°C° 0 mm 2 mps 757 mmHg 86%
    19:00 +8°C° 0 mm 2 mps 757 mmHg 86%
    20:00 +8°C° 0 mm 2 mps 757 mmHg 86%
    21:00 +8°C° 0 mm 2 mps 757 mmHg 85%
    22:00 +8°C° 0 mm 2 mps 757 mmHg 85%
    23:00 +8°C° 0 mm 2 mps 757 mmHg 85%

    Tomorrow, 19 January, Saturday

    Time Temperature Precipitation Wind Pressure Humidity
    00:00 +8°C° 0.1 mm 2 mps 757 mmHg 85%
    01:00 +8°C° 0.1 mm 3 mps 756 mmHg 86%
    02:00 +8°C° 0.1 mm 3 mps 756 mmHg 86%
    03:00 +7°C° 1.2 mm 4 mps 755 mmHg 88%
    04:00 +7°C° 1.2 mm 4 mps 755 mmHg 89%
    05:00 +7°C° 1.2 mm 4 mps 755 mmHg 91%
    06:00 +8°C° 1.6 mm 4 mps 754 mmHg 93%
    07:00 +8°C° 1.6 mm 4 mps 754 mmHg 94%
    08:00 +9°C° 1.6 mm 3 mps 753 mmHg 96%
    09:00 +10°C° 4.5 mm 4 mps 753 mmHg 97%
    10:00 +10°C° 4.5 mm 5 mps 753 mmHg 97%
    11:00 +11°C° 4.5 mm 6 mps 752 mmHg 98%
    12:00 +11°C° 2.2 mm 6 mps 752 mmHg 95%
    13:00 +13°C° 2.2 mm 6 mps 751 mmHg 93%
    14:00 +13°C° 2.2 mm 6 mps 750 mmHg 91%
    15:00 +13°C° 0.8 mm 5 mps 750 mmHg 92%
    16:00 +12°C° 0.8 mm 4 mps 750 mmHg 94%
    17:00 +12°C° 0.8 mm 3 mps 751 mmHg 96%
    18:00 +12°C° 0.4 mm 3 mps 751 mmHg 97%
    19:00 +12°C° 0.4 mm 3 mps 751 mmHg 97%
    20:00 +12°C° 0.4 mm 3 mps 752 mmHg 97%
    21:00 +11°C° 0.1 mm 3 mps 752 mmHg 97%
    22:00 +11°C° 0.1 mm 4 mps 753 mmHg 96%
    23:00 +11°C° 0.1 mm 4 mps 753 mmHg 96%

    Day after tomorrow, 20 January, Sunday

    Time Temperature Precipitation Wind Pressure Humidity
    00:00 +11°C° 0 mm 4 mps 754 mmHg 93%
    01:00 +9°C° 0 mm 5 mps 754 mmHg 91%
    02:00 +9°C° 0 mm 5 mps 755 mmHg 89%
    03:00 +8°C° 0 mm 5 mps 755 mmHg 89%
    04:00 +7°C° 0 mm 5 mps 755 mmHg 89%
    05:00 +7°C° 0 mm 4 mps 756 mmHg 88%
    06:00 +7°C° 0 mm 4 mps 757 mmHg 87%
    07:00 +7°C° 0 mm 4 mps 757 mmHg 87%
    08:00 +7°C° 0 mm 4 mps 758 mmHg 86%
    09:00 +8°C° 0 mm 4 mps 758 mmHg 79%
    10:00 +10°C° 0 mm 4 mps 759 mmHg 72%
    11:00 +12°C° 0 mm 4 mps 759 mmHg 65%
    12:00 +12°C° 0 mm 5 mps 759 mmHg 64%
    13:00 +12°C° 0 mm 5 mps 758 mmHg 62%
    14:00 +13°C° 0 mm 5 mps 758 mmHg 60%
    15:00 +12°C° 0 mm 5 mps 759 mmHg 66%
    16:00 +10°C° 0 mm 5 mps 759 mmHg 72%
    17:00 +10°C° 0 mm 4 mps 759 mmHg 77%
    18:00 +8°C° 0 mm 4 mps 760 mmHg 80%
    19:00 +8°C° 0 mm 4 mps 760 mmHg 82%
    20:00 +7°C° 0 mm 4 mps 761 mmHg 85%
    21:00 +7°C° 0 mm 4 mps 761 mmHg 86%
    22:00 +6°C° 0 mm 4 mps 761 mmHg 86%
    23:00 +6°C° 0 mm 4 mps 762 mmHg 87%

    21 January, Monday

    Time Temperature Precipitation Wind Pressure Humidity
    00:00 +6°C° 0 mm 4 mps 762 mmHg 87%
    01:00 +6°C° 0 mm 4 mps 762 mmHg 87%
    02:00 +5°C° 0 mm 4 mps 762 mmHg 87%
    03:00 +5°C° 0 mm 4 mps 762 mmHg 87%
    04:00 +5°C° 0 mm 4 mps 762 mmHg 88%
    05:00 +5°C° 0 mm 4 mps 762 mmHg 88%
    06:00 +5°C° 0 mm 3 mps 762 mmHg 86%
    07:00 +5°C° 0 mm 3 mps 763 mmHg 84%
    08:00 +7°C° 0 mm 3 mps 763 mmHg 82%
    09:00 +8°C° 0 mm 3 mps 763 mmHg 73%
    10:00 +10°C° 0 mm 3 mps 763 mmHg 64%
    11:00 +13°C° 0 mm 2 mps 763 mmHg 56%
    12:00 +13°C° 0 mm 3 mps 763 mmHg 55%
    13:00 +13°C° 0 mm 3 mps 762 mmHg 53%
    14:00 +13°C° 0 mm 4 mps 762 mmHg 52%
    15:00 +12°C° 0 mm 4 mps 762 mmHg 59%
    16:00 +11°C° 0 mm 4 mps 763 mmHg 65%
    17:00 +10°C° 0 mm 4 mps 763 mmHg 72%
    18:00 +8°C° 0 mm 4 mps 763 mmHg 75%
    19:00 +9°C° 0 mm 3 mps 764 mmHg 78%
    20:00 +8°C° 0 mm 3 mps 764 mmHg 81%
    21:00 +7°C° 0 mm 3 mps 764 mmHg 82%
    22:00 +7°C° 0 mm 3 mps 764 mmHg 82%
    23:00 +7°C° 0 mm 3 mps 764 mmHg 83%

    22 January, Tuesday

    Time Temperature Precipitation Wind Pressure Humidity
    00:00 +5°C° 0 mm 3 mps 764 mmHg 84%
    01:00 +5°C° 0 mm 3 mps 763 mmHg 85%
    02:00 +6°C° 0 mm 2 mps 763 mmHg 86%
    03:00 +5°C° 0 mm 3 mps 763 mmHg 86%
    04:00 +5°C° 0 mm 3 mps 763 mmHg 87%
    05:00 +5°C° 0 mm 3 mps 763 mmHg 88%
    06:00 +5°C° 0 mm 3 mps 763 mmHg 87%
    07:00 +6°C° 0 mm 2 mps 763 mmHg 86%
    08:00 +7°C° 0 mm 2 mps 763 mmHg 85%
    09:00 +8°C° 0 mm 2 mps 763 mmHg 80%
    10:00 +9°C° 0 mm 2 mps 762 mmHg 75%
    11:00 +11°C° 0 mm 1 mps 762 mmHg 71%
    12:00 +10°C° 0.2 mm 2 mps 761 mmHg 76%
    13:00 +10°C° 0.2 mm 2 mps 761 mmHg 81%
    14:00 +9°C° 0.2 mm 2 mps 760 mmHg 87%
    15:00 +9°C° 0.3 mm 3 mps 760 mmHg 89%
    16:00 +10°C° 0.3 mm 4 mps 760 mmHg 92%
    17:00 +10°C° 0.3 mm 4 mps 760 mmHg 95%
    18:00 +8°C° 0 mm 4 mps 760 mmHg 92%
    19:00 +7°C° 0 mm 4 mps 760 mmHg 89%
    20:00 +6°C° 0 mm 4 mps 761 mmHg 86%
    21:00 +6°C° 0 mm 4 mps 761 mmHg 87%
    22:00 +6°C° 0 mm 4 mps 760 mmHg 88%
    23:00 +6°C° 0 mm 4 mps 760 mmHg 89%

    23 January, Wednesday

    Time Temperature Precipitation Wind Pressure Humidity
    00:00 +6°C° 0.1 mm 4 mps 760 mmHg 89%
    01:00 +7°C° 0.1 mm 5 mps 760 mmHg 89%
    02:00 +7°C° 0.1 mm 5 mps 759 mmHg 89%
    03:00 +8°C° 0.2 mm 5 mps 759 mmHg 89%
    04:00 +8°C° 0.2 mm 6 mps 759 mmHg 90%
    05:00 +8°C° 0.2 mm 6 mps 758 mmHg 91%
    06:00 +9°C° 0.2 mm 7 mps 758 mmHg 89%
    07:00 +9°C° 0.2 mm 7 mps 758 mmHg 88%
    08:00 +9°C° 0.2 mm 7 mps 758 mmHg 86%
    09:00 +10°C° 0.2 mm 7 mps 758 mmHg 85%
    10:00 +10°C° 0.2 mm 7 mps 758 mmHg 83%
    11:00 +10°C° 0.2 mm 7 mps 757 mmHg 82%
    12:00 +11°C° 0.1 mm 7 mps 757 mmHg 80%
    13:00 +11°C° 0.1 mm 7 mps 756 mmHg 79%
    14:00 +11°C° 0.1 mm 7 mps 756 mmHg 77%
    15:00 +10°C° 0.1 mm 7 mps 756 mmHg 79%
    16:00 +10°C° 0.1 mm 6 mps 756 mmHg 81%
    17:00 +10°C° 0.1 mm 6 mps 756 mmHg 84%
    18:00 +10°C° 0.2 mm 6 mps 755 mmHg 86%
    19:00 +10°C° 0.2 mm 7 mps 755 mmHg 89%
    20:00 +10°C° 0.2 mm 7 mps 755 mmHg 91%
    21:00 +10°C° 0.3 mm 8 mps 754 mmHg 91%
    22:00 +10°C° 0.3 mm 8 mps 754 mmHg 90%
    23:00 +10°C° 0.3 mm 9 mps 753 mmHg 90%
    Show more